Find Starlink 4525

NORAD ID: 53401 Int'l Des: 2022-097 Owner: SPXS Country: US Constellation: starlink operational
LEOCIRCULAR

Live Position

Loading 3D Globe...

About Starlink 4525

Description loading...

Upcoming Passes

Passes for default location (London). Set your location on the main map for personalized predictions.

Altitude History

Loading altitude history...

Two-Line Element Set

1 53401U 22097P 26121.60876071 .00001456 00000-0 10955-3 0 9999
2 53401 53.2184 246.5589 0001241 90.1276 269.9858 15.08845109206501
Epoch: May 1, 2026 • Age: 14 hours

Current Status

Altitude 543.5 km
Velocity 7.59 km/s
Sub-Earth Point -13.24°S, 58.98°W
Launch Date Aug 10, 2022
Age 3.7 years
Type internet

Technical Details

Classification Payload
Mass 297.00 kg
Dry Mass 275.00 kg
Total Mass 297.00 kg
Length 0.20 m
Diameter 2.80 m
Span 9.00 m
Shape Box + pan
Manufacturer SPXS
Bus Type Starlink
Phase Status In Orbit
Owner/State SPXS/US

Most Searched